Weather History for Spirit of St Louis, MO

Change the Weather History Date:

Saturday, April 13, 2013

  Actual Average Record
Temperature  
Mean Temperature 47 °F -  
Max Temperature 62 °F 65 °F 89 °F (2006)
Min Temperature 32 °F 42 °F 30 °F (1997)
Degree Days  
Heating Degree Days 18    
Moisture  
Dew Point 33 °F    
Average Humidity 59    
Maximum Humidity 89    
Minimum Humidity 36    
Precipitation  
Precipitation 0.00 in - - ()
Sea Level Pressure  
Sea Level Pressure 30.00 in    
Wind  
Wind Speed 4 mph (WSW)    
Max Wind Speed 10 mph    
Max Gust Speed 18 mph    
Visibility 10 miles    
Events      
Averages and records for this station are not official NWS values.
T = Trace of Precipitation, MM = Missing Value Source: NWS Daily Summary

Daily Weather History Graph

Daily Weather History Graph

Search for Another Location

Airport:

Trip Planner

Search our weather history database for the weather conditions in past years. The results will help you decide how hot, cold, wet, or windy it might be!

Date:

Astronomy

Apr. 13, 2013 Rise Set
Actual Time 6:28 AM CDT 7:37 PM CDT
Civil Twilight 6:01 AM CDT 8:05 PM CDT
Nautical Twilight 5:29 AM CDT 8:37 PM CDT
Astronomical Twilight 4:55 AM CDT 9:12 PM CDT
Moon 8:22 AM CDT (4/13) 10:59 PM CDT (4/13)
Length of Visible Light 14h 03m
Length of Day
13h 08m
Waxing Crescent, 10% of the Moon is Illuminated
Apr 13
Waxing Crescent
Apr 18
First Quarter
Apr 25
Full
May 2
Last Quarter
May 9
New

Hourly Weather History & Observations

Time (CDT) Temp. Windchill Dew Point Humidity Pressure Visibility Wind Dir Wind Speed Gust Speed Precip Events Conditions
12:54 AM 35.1 °F - 30.0 °F 82% 30.03 in 10.0 mi Calm Calm - N/A   Clear
1:54 AM 34.0 °F - 30.9 °F 89% 30.04 in 10.0 mi Calm Calm - N/A   Clear
2:54 AM 32.0 °F - 28.9 °F 88% 30.03 in 10.0 mi Calm Calm - N/A   Clear
3:54 AM 32.0 °F - 28.9 °F 88% 30.03 in 10.0 mi Calm Calm - N/A   Clear
4:54 AM 32.0 °F 27.5 °F 28.9 °F 88% 30.04 in 10.0 mi West 4.6 mph - N/A   Clear
5:54 AM 35.1 °F 30.1 °F 30.0 °F 82% 30.04 in 10.0 mi West 5.8 mph - N/A   Clear
6:54 AM 33.1 °F 28.7 °F 30.0 °F 89% 30.06 in 10.0 mi WSW 4.6 mph - N/A   Clear
7:54 AM 39.9 °F 33.9 °F 32.0 °F 73% 30.08 in 10.0 mi WSW 9.2 mph - N/A   Clear
8:54 AM 43.0 °F 37.2 °F 32.0 °F 65% 30.09 in 10.0 mi West 10.4 mph - N/A   Clear
9:54 AM 48.0 °F - 32.0 °F 54% 30.08 in 10.0 mi West 9.2 mph - N/A   Clear
10:54 AM 51.1 °F - 30.9 °F 46% 30.09 in 10.0 mi WSW 10.4 mph 17.3 mph N/A   Clear
11:54 AM 53.1 °F - 32.0 °F 45% 30.08 in 10.0 mi SW 8.1 mph 16.1 mph N/A   Clear
12:54 PM 55.0 °F - 32.0 °F 42% 30.06 in 10.0 mi Variable 5.8 mph - N/A   Scattered Clouds
1:54 PM 57.0 °F - 34.0 °F 42% 30.03 in 10.0 mi West 5.8 mph - N/A   Scattered Clouds
2:54 PM 59.0 °F - 34.0 °F 39% 30.01 in 10.0 mi WNW 8.1 mph - N/A   Scattered Clouds
3:54 PM 60.1 °F - 34.0 °F 38% 29.99 in 10.0 mi West 6.9 mph - N/A   Overcast
4:54 PM 61.0 °F - 34.0 °F 36% 29.96 in 10.0 mi Calm Calm - N/A   Overcast
5:54 PM 62.1 °F - 35.1 °F 37% 29.94 in 10.0 mi Variable 4.6 mph - N/A   Mostly Cloudy
6:54 PM 59.0 °F - 35.6 °F 42% 29.92 in 10.0 mi NE 8.1 mph - N/A   Partly Cloudy
7:54 PM 54.0 °F - 37.0 °F 53% 29.91 in 10.0 mi East 5.8 mph - N/A   Partly Cloudy
8:54 PM 55.9 °F - 35.1 °F 45% 29.90 in 10.0 mi ESE 5.8 mph - N/A   Clear
9:54 PM 55.9 °F - 36.0 °F 47% 29.90 in 10.0 mi ESE 6.9 mph 18.4 mph N/A   Clear
10:54 PM 55.0 °F - 39.0 °F 55% 29.90 in 10.0 mi SE 8.1 mph - N/A   Clear
11:54 PM 53.1 °F - 39.9 °F 61% 29.89 in 10.0 mi East 5.8 mph - N/A   Clear